Tracking 33165 objects as of 7-Feb-2026
HD Live streaming from Space Station
objects crossing your sky now

OBJECT V

Track OBJECT V now!
10-day predictions


NORAD ID: 67267
Int'l Code: 2025-313V
Perigee: 499.1 km
Apogee: 520.6 km
Inclination: 97.4 °
Period: 94.7 minutes
Semi major axis: 6880 km
RCS: Unknown
Launch date: December 28, 2025
Source: (TBD)
Launch site: VOSTOCHNY COSMODROME (VOSTO)
Your satellite tracking list
Your tracking list is empty




NASA's NSSDC Master Catalog

Two Line Element Set (TLE):
1 67267U 25313V   26038.61336855  .00016052  00000-0  72280-3 0  9994
2 67267  97.4068 115.3769 0015621 103.2428 257.0551 15.21041447  6247
Source of the keplerian elements: AFSPC